Location: Sternwarte ZA, Rosenfeld-Brittheim
(48.2889°N, 8.6789°E)
Time: 03:53:35
(UTC+02:00)

ISS - Pass Details

Date: 27 May 2017
Orbit: 401 x 408 km, 51.6° (Epoch: 25 June)

Event Time Altitude Azimuth Distance (km) Brightness Sun altitude
Rises 22:24:11 0° 246° (WSW) 2,333 0.3 -9.7°
Reaches altitude 10° 22:26:16 10° 247° (WSW) 1,474 -0.8 -9.9°
Maximum altitude 22:29:35 90° 151° (SSE) 415 -3.8 -10.3°
Drops below altitude 10° 22:32:54 10° 68° (ENE) 1,476 -1.2 -10.6°
Sets 22:34:59 0° 69° (ENE) 2,338 -0.1 -10.9°
